GW4053 Weather Reports


time (UTC)temp
C
wind
direction
speed
KPH
gust
KPH
rain 1hr
cm
rain 24hr
cm
rain mn
cm
humidity
%
barometer
mb
20260507125022 22 292 6.4 19.3 0.00 0.03 0.00 38 1013.8
20260507124022 21 251 11.3 22.5 0.00 0.03 0.00 41 1013.9
20260507123022 21 275 6.4 19.3 0.00 0.03 0.00 41 1014.0
20260507122021 21 254 6.4 16.1 0.00 0.03 0.00 49 1014.0
20260507121022 21 24 4.8 14.5 0.00 0.03 0.00 48 1014.0
20260507120023 21 315 3.2 9.7 0.00 0.03 0.00 51 1013.9
20260507115022 21 12 3.2 9.7 0.00 0.03 0.00 52 1014.2
20260507114022 20 346 3.2 11.3 0.00 0.03 0.00 56 1014.4
20260507113023 20 304 3.2 11.3 0.00 0.03 0.00 56 1014.3
20260507112022 20 18 3.2 8.0 0.00 0.03 0.00 57 1014.0
20260507110922 20 10 3.2 14.5 0.00 0.03 0.00 56 1014.3
20260507105922 20 347 3.2 6.4 0.00 0.03 0.00 58 1014.5
20260507104922 20 1 3.2 9.7 0.00 0.03 0.00 57 1014.5
20260507103922 19 15 3.2 9.7 0.00 0.03 0.00 58 1014.6
20260507102922 19 3 3.2 9.7 0.00 0.03 0.00 59 1014.6
20260507101923 19 16 3.2 12.9 0.00 0.03 0.00 60 1014.7
20260507100922 18 7 3.2 9.7 0.00 0.03 0.00 61 1015.0
20260507095922 18 346 3.2 9.7 0.00 0.03 0.00 60 1014.9
20260507094922 18 296 3.2 6.4 0.00 0.03 0.00 59 1014.8
20260507093922 18 332 3.2 9.7 0.00 0.03 0.00 56 1014.9
20260507092823 17 303 4.8 9.7 0.00 0.03 0.00 58 1014.8
20260507091823 17 350 3.2 9.7 0.00 0.03 0.00 62 1014.8
20260507090822 17 28 3.2 9.7 0.00 0.03 0.00 62 1015.0
20260507085822 17 330 4.8 9.7 0.00 0.03 0.00 64 1015.2
20260507084822 17 2 3.2 8.0 0.00 0.03 0.00 66 1015.2
20260507083822 16 14 3.2 8.0 0.00 0.03 0.00 66 1015.3
20260507082822 16 323 3.2 6.4 0.00 0.03 0.00 68 1015.6
20260507081822 16 1 3.2 8.0 0.00 0.03 0.00 69 1015.4
20260507080823 16 341 3.2 6.4 0.00 0.03 0.00 70 1015.3
20260507075822 15 15 3.2 9.7 0.00 0.03 0.00 72 1015.7
20260507074823 15 358 3.2 9.7 0.00 0.03 0.00 72 1015.6
20260507073722 15 11 3.2 8.0 0.00 0.03 0.00 74 1015.6
20260507072722 15 20 3.2 8.0 0.00 0.03 0.00 74 1015.7
20260507071722 15 356 3.2 6.4 0.00 0.03 0.00 74 1015.4
20260507070722 15 1 3.2 6.4 0.00 0.03 0.00 76 1015.6
20260507065722 15 332 3.2 9.7 0.00 0.03 0.00 76 1015.6
20260507064722 14 323 3.2 6.4 0.00 0.03 0.00 76 1015.7
20260507063722 14 315 1.6 6.4 0.00 0.03 0.00 77 1015.6
20260507062722 14 290 3.2 6.4 0.00 0.03 0.00 77 1015.7
20260507061722 14 286 3.2 6.4 0.00 0.03 0.00 76 1015.3
20260507060722 14 282 3.2 6.4 0.00 0.03 0.00 77 1015.4
20260507055722 14 270 3.2 6.4 0.00 0.03 0.00 77 1015.2
20260507054622 14 270 3.2 6.4 0.00 0.03 0.00 77 1015.3
20260507053921 14 261 3.2 8.0 0.00 0.03 0.00 77 1015.3
20260507052621 13 270 3.2 6.4 0.00 0.03 0.00 77 1015.2
20260507051623 13 270 3.2 6.4 0.00 0.03 0.00 77 1015.1
20260507050621 13 270 3.2 6.4 0.00 0.03 0.00 76 1015.1
20260507045622 13 284 4.8 9.7 0.00 0.03 0.00 76 1015.0
20260507044622 13 278 4.8 8.0 0.00 0.03 0.00 76 1014.9
20260507043621 13 278 3.2 9.7 0.00 0.03 0.00 76 1014.7
20260507042621 13 279 4.8 9.7 0.00 0.03 0.00 76 1014.8
20260507041622 13 270 3.2 6.4 0.00 0.03 0.00 76 1014.8
20260507040621 13 270 3.2 8.0 0.00 0.03 0.00 76 1014.7
20260507035522 14 260 3.2 6.4 0.03 0.03 0.00 76 1014.6
20260507034522 14 270 3.2 6.4 0.03 0.03 0.00 75 1014.6
20260507033522 14 270 3.2 6.4 0.03 0.03 0.00 76 1014.7
20260507032522 14 270 3.2 6.4 0.03 0.03 0.00 75 1014.8
20260507031522 14 270 3.2 8.0 0.03 0.03 0.00 74 1014.6
20260507030522 14 280 4.8 9.7 0.03 0.03 0.00 74 1014.6
20260507025521 14 286 3.2 8.0 0.00 0.00 0.00 73 1014.7
20260507024522 14 270 3.2 6.4 0.00 0.00 0.00 73 1014.4
20260507023522 14 289 3.2 6.4 0.00 0.00 0.00 73 1014.3
20260507022522 14 270 3.2 6.4 0.00 0.00 0.00 74 1014.3
20260507021521 14 270 3.2 6.4 0.00 0.00 0.00 74 1014.2
20260507020522 14 270 3.2 8.0 0.00 0.00 0.00 74 1014.2
20260507015421 14 281 3.2 6.4 0.00 0.00 0.00 74 1014.0
20260507014421 14 293 4.8 9.7 0.00 0.00 0.00 74 1013.9
20260507013422 14 298 6.4 11.3 0.00 0.00 0.00 74 1014.0
20260507012421 14 299 6.4 9.7 0.00 0.00 0.00 74 1013.9
20260507011422 14 291 4.8 9.7 0.00 0.00 0.00 74 1013.9
20260507010421 14 291 4.8 9.7 0.00 0.00 0.00 74 1013.8
20260507005422 14 288 3.2 6.4 0.00 0.00 0.00 73 1013.9
20260507004421 14 285 4.8 8.0 0.00 0.00 0.00 73 1013.7
20260507003422 15 270 3.2 6.4 0.00 0.00 0.00 73 1013.8
20260507002421 14 291 3.2 8.0 0.00 0.00 0.00 73 1013.9
20260507001422 15 298 6.4 9.7 0.00 0.00 0.00 73 1013.9
20260507000421 15 296 6.4 9.7 0.00 0.00 0.00 72 1014.0
20260506235422 15 303 6.4 11.3 0.00 0.00 0.00 71 1013.9
20260506234321 15 291 4.8 8.0 0.00 0.00 0.00 71 1014.0
20260506233322 15 270 3.2 6.4 0.00 0.00 0.00 71 1014.4
20260506232322 15 280 3.2 6.4 0.00 0.00 0.00 71 1014.5
20260506231322 15 270 3.2 6.4 0.00 0.00 0.00 71 1014.5
20260506230321 15 270 3.2 8.0 0.00 0.00 0.00 70 1014.7
20260506225322 15 284 3.2 6.4 0.00 0.00 0.00 70 1014.7
20260506224321 15 270 3.2 6.4 0.00 0.00 0.00 71 1014.7
20260506223322 15 280 3.2 6.4 0.00 0.00 0.00 70 1014.8
20260506222322 15 278 3.2 8.0 0.00 0.00 0.00 69 1014.8
20260506221321 15 285 4.8 8.0 0.00 0.00 0.00 69 1014.8
20260506220222 15 289 4.8 8.0 0.00 0.00 0.00 68 1014.8
20260506215222 15 290 4.8 8.0 0.00 0.10 0.00 68 1014.9
20260506214221 15 288 3.2 8.0 0.00 0.10 0.00 68 1014.9
20260506213223 15 270 3.2 6.4 0.00 0.10 0.00 68 1014.9
20260506212222 15 270 3.2 6.4 0.00 0.10 0.00 68 1014.9
20260506211222 15 286 3.2 6.4 0.00 0.10 0.00 68 1014.8
20260506210221 16 279 3.2 6.4 0.00 0.10 0.00 68 1014.6
20260506205322 16 279 3.2 6.4 0.00 0.10 0.00 66 1014.9
20260506204222 16 280 3.2 6.4 0.00 0.10 0.00 66 1014.8
20260506203222 16 296 4.8 9.7 0.00 0.10 0.00 66 1014.9
20260506202222 16 299 6.4 12.9 0.00 0.10 0.00 66 1015.0
20260506201122 16 305 6.4 11.3 0.00 0.10 0.00 66 1014.9
20260506200122 16 304 6.4 12.9 0.00 0.10 0.00 66 1014.9
20260506195122 16 297 4.8 9.7 0.00 0.10 0.00 67 1015.0
20260506194122 16 298 6.4 12.9 0.00 0.10 0.00 67 1014.7
20260506193122 16 302 4.8 9.7 0.00 0.10 0.00 67 1014.6
20260506192122 16 303 6.4 12.9 0.00 0.10 0.00 67 1014.5
20260506191121 16 302 6.4 12.9 0.00 0.10 0.00 67 1014.4
20260506190122 16 305 9.7 14.5 0.00 0.10 0.00 66 1014.4
20260506185122 16 303 6.4 11.3 0.00 0.10 0.00 66 1014.4
20260506184122 16 306 6.4 16.1 0.00 0.10 0.00 66 1014.4
20260506183123 16 297 6.4 11.3 0.00 0.10 0.00 66 1014.2
20260506182022 16 296 6.4 9.7 0.00 0.10 0.00 65 1014.2
20260506181022 17 303 6.4 11.3 0.00 0.10 0.00 65 1013.9
20260506180023 17 304 6.4 11.3 0.00 0.10 0.00 64 1013.8
20260506175021 17 303 6.4 12.9 0.00 0.10 0.00 64 1013.7
20260506174022 17 300 6.4 11.3 0.00 0.10 0.00 64 1013.7
20260506173022 17 306 6.4 12.9 0.00 0.10 0.00 64 1013.6
20260506172021 17 297 6.4 12.9 0.00 0.10 0.00 63 1013.6
20260506171022 17 308 9.7 17.7 0.00 0.10 0.00 63 1013.5
20260506170021 17 310 9.7 17.7 0.00 0.10 0.00 63 1013.6
20260506165022 17 310 9.7 22.5 0.00 0.10 0.00 62 1013.5
20260506164021 17 304 3.2 9.7 0.00 0.10 0.00 63 1013.3
20260506162921 17 318 4.8 11.3 0.00 0.10 0.00 63 1013.5
20260506161922 17 313 6.4 14.5 0.00 0.10 0.00 62 1013.5
20260506160921 17 313 9.7 19.3 0.00 0.10 0.00 62 1013.6
20260506155922 18 309 12.9 27.4 0.00 0.10 0.00 61 1013.4
20260506154922 18 307 11.3 19.3 0.00 0.10 0.00 60 1013.5
20260506153922 18 303 12.9 22.5 0.00 0.10 0.00 60 1013.7
20260506152921 18 304 12.9 25.7 0.00 0.10 0.00 60 1013.5
20260506151922 18 308 11.3 22.5 0.00 0.10 0.00 60 1013.6
20260506150922 18 301 9.7 19.3 0.00 0.10 0.00 60 1013.2
20260506145922 19 297 11.3 32.2 0.00 0.10 0.00 60 1013.2
20260506145021 19 301 9.7 19.3 0.00 0.10 0.00 60 1013.4
20260506144021 19 303 9.7 19.3 0.00 0.10 0.00 59 1013.4
20260506143021 19 300 11.3 20.9 0.00 0.10 0.00 58 1013.3
20260506141721 19 298 11.3 20.9 0.00 0.10 0.00 58 1013.3
20260506140721 20 299 9.7 25.7 0.00 0.10 0.00 58 1013.3
20260506135722 19 290 12.9 29.0 0.00 0.10 0.00 58 1013.3
20260506134721 19 296 11.3 22.5 0.00 0.10 0.00 57 1013.3
20260506133721 19 305 9.7 20.9 0.00 0.10 0.00 58 1013.5
20260506132721 20 297 9.7 22.5 0.00 0.10 0.00 58 1013.7
20260506131821 20 293 11.3 25.7 0.00 0.10 0.00 57 1013.7
20260506130722 20 280 11.3 25.7 0.00 0.10 0.00 58 1013.8
20260506125722 19 301 9.7 19.3 0.00 0.10 0.00 60 1013.9